Location: Jaite
(41.2884°N, 81.5737°W)
Time: 07:03:05
(UTC+00:00)

Cosmos 1420 Rocket - Pass Details

Date: 15 November 2025
Orbit: 750 x 776 km, 74.0° (Epoch: 13 December)

Event Time Altitude Azimuth Distance (km) Brightness Sun altitude
Exits shadow 09:38:49 54° 33° (NNE) 934 4.5 -29.3°
Drops below altitude 10° 09:42:56 10° 22° (NNE) 2,332 6.7 -28.5°
Sets 09:45:20 0° 21° (NNE) 3,264 7.5 -28.1°
